Date String (YYYY-MM-DD hh:mm:ss) UTC,Instrument flags,Ambient pressure (hPa),Sample flow (lpm),Bypass flow (lpm),Sample temperature (°C),Ambient temperature (°C),ASC tube jacket temperature (°C),LED temperature (°C),Box temperature (°C),Sample RH (%),Span deviation,Mass concentration (μg/m³),Mass concentration (μg/m³),Mass concentration (μg/m³)
DateTimeUTC,F1_M11,P_M11,Q1_M11,Q2_M11,T1_M11,T2_M11,T3_M11,T4_M11,T5_M11,U1_M11,ZSPAN_M11,X0_M11,X2_M11,X1_M11
2021-10-22 13:00:00,,0828.0,4.99,0.00,26.2,25.3,00.0,35.3,28.0,10.1,0000.0,0011.95,0003.75,0002.59
2021-10-22 13:01:00,,0828.0,5.01,0.00,26.2,25.3,00.0,35.3,28.0,10.1,0000.0,0012.55,0003.79,0002.60
2021-10-22 13:02:00,,0828.1,5.01,0.00,26.2,25.3,00.0,35.3,28.0,10.0,0000.0,0012.69,0003.81,0002.61
2021-10-22 13:03:00,,0828.0,4.99,0.00,26.2,25.2,00.0,35.3,28.0,10.0,0000.0,0012.87,0003.84,0002.62
2021-10-22 13:04:00,,0828.0,5.00,0.00,26.2,25.2,00.0,35.3,28.0,10.0,0000.0,0012.27,0003.84,0002.61
2021-10-22 13:05:00,,0828.0,5.00,0.00,26.2,25.2,00.0,35.3,27.9,10.1,0000.0,0011.38,0003.79,0002.60
2021-10-22 13:06:00,,0828.0,4.99,0.00,26.2,25.2,00.0,35.3,27.9,10.1,0000.0,0011.54,0003.78,0002.61
2021-10-22 13:07:00,,0828.0,5.01,0.00,26.2,25.2,00.0,35.3,27.9,10.1,0000.0,0011.60,0003.79,0002.62
2021-10-22 13:08:00,,0828.0,5.00,0.00,26.2,25.2,00.0,35.3,28.0,10.1,0000.0,0011.70,0003.79,0002.64
2021-10-22 13:09:00,,0828.0,5.00,0.00,26.2,25.2,00.0,35.3,27.9,10.0,0000.0,0011.53,0003.79,0002.63
2021-10-22 13:10:00,,0828.1,5.00,0.00,26.2,25.3,00.0,35.3,27.9,10.0,0000.0,0011.08,0003.82,0002.64
2021-10-22 13:11:00,,0828.1,5.00,0.00,26.2,25.3,00.0,35.3,27.9,10.1,0000.0,0010.53,0003.84,0002.67
2021-10-22 13:12:00,,0828.0,4.99,0.00,26.2,25.3,00.0,35.3,28.0,10.1,0000.0,0010.22,0003.85,0002.68
2021-10-22 13:13:00,,0828.0,5.01,0.00,26.2,25.3,00.0,35.3,28.0,10.1,0000.0,0010.46,0003.86,0002.70
2021-10-22 13:14:00,,0828.0,5.00,0.00,26.2,25.2,00.0,35.2,28.0,10.1,0000.0,0010.92,0003.88,0002.71
2021-10-22 13:15:00,,0828.1,5.01,0.00,26.2,25.2,00.0,35.2,28.0,10.1,0000.0,0011.20,0003.88,0002.74
2021-10-22 13:16:00,,0828.1,5.00,0.00,26.1,25.2,00.0,35.2,28.0,10.1,0000.0,0011.82,0003.91,0002.76
2021-10-22 13:17:00,,0828.0,5.00,0.00,26.1,25.2,00.0,35.2,27.9,10.1,0000.0,0011.47,0003.90,0002.75
2021-10-22 13:18:00,,0828.0,5.00,0.00,26.1,25.2,00.0,35.2,27.9,10.1,0000.0,0012.11,0003.92,0002.77
2021-10-22 13:19:00,,0828.0,5.01,0.00,26.1,25.1,00.0,35.2,27.9,10.1,0000.0,0012.37,0003.89,0002.77
2021-10-22 13:20:00,,0828.1,5.02,0.00,26.1,25.1,00.0,35.2,27.9,10.1,0000.0,0012.97,0003.81,0002.76
2021-10-22 13:21:00,,0828.1,4.98,0.00,26.1,25.2,00.0,35.2,27.9,10.1,0000.0,0013.70,0003.81,0002.77
2021-10-22 13:22:00,,0828.0,5.00,0.00,26.1,25.2,00.0,35.2,27.9,10.1,0000.0,0013.56,0003.77,0002.76
2021-10-22 13:23:00,,0828.0,4.99,0.00,26.1,25.2,00.0,35.2,27.9,10.2,0000.0,0013.49,0003.77,0002.78
2021-10-22 13:24:00,,0828.0,5.01,0.00,26.1,25.2,00.0,35.2,27.9,10.3,0000.0,0014.02,0003.76,0002.80
2021-10-22 13:25:00,,0828.0,4.99,0.00,26.1,25.2,00.0,35.2,27.9,10.3,0000.0,0014.55,0003.78,0002.86
2021-10-22 13:26:00,,0827.9,5.00,0.00,26.1,25.2,00.0,35.1,27.9,10.4,0000.0,0014.41,0003.84,0002.89
2021-10-22 13:27:00,,0827.9,5.01,0.00,26.1,25.2,00.0,35.1,27.9,10.4,0000.0,0014.13,0003.91,0002.98
2021-10-22 13:28:00,,0827.9,5.00,0.00,26.1,25.2,00.0,35.1,27.9,10.4,0000.0,0014.20,0003.93,0003.05
2021-10-22 13:29:00,,0827.9,5.01,0.00,26.1,25.2,00.0,35.1,27.9,10.4,0000.0,0014.07,0003.97,0003.14
2021-10-22 13:30:00,,0828.0,5.00,0.00,26.0,25.2,00.0,35.1,27.9,10.5,0000.0,0015.25,0004.12,0003.23
2021-10-22 13:31:00,,0828.0,5.01,0.00,26.0,25.1,00.0,35.1,27.8,10.5,0000.0,0017.26,0004.33,0003.35
2021-10-22 13:32:00,,0827.9,5.00,0.00,26.0,25.1,00.0,35.1,27.8,10.5,0000.0,0017.12,0004.45,0003.44
2021-10-22 13:33:00,,0828.0,5.00,0.00,25.9,25.0,00.0,35.1,27.7,10.6,0000.0,0017.88,0004.66,0003.54
2021-10-22 13:34:00,,0828.0,5.00,0.00,25.9,25.0,00.0,35.1,27.7,10.6,0000.9,0018.41,0004.78,0003.63
2021-10-22 13:35:00,,0828.0,5.00,0.00,25.9,25.0,00.0,35.1,27.7,10.6,-000.2,0018.74,0004.87,0003.71
2021-10-22 13:36:00,,0828.0,5.00,0.00,25.9,25.0,00.0,35.0,27.7,10.6,-001.1,0018.43,0004.97,0003.79
2021-10-22 13:37:00,,0828.0,5.00,0.00,25.9,25.0,00.0,35.0,27.7,10.6,-003.0,0018.36,0005.10,0003.90
2021-10-22 13:38:00,,0828.0,5.00,0.00,25.9,25.0,00.0,35.0,27.7,10.6,-003.2,0019.32,0005.16,0003.96
2021-10-22 13:39:00,,0828.0,4.99,0.00,25.9,25.0,00.0,35.0,27.7,10.6,-002.8,0019.78,0005.24,0004.01
2021-10-22 13:40:00,,0828.0,5.01,0.00,25.9,25.0,00.0,35.0,27.7,10.6,-002.1,0020.27,0005.40,0004.11
2021-10-22 13:41:00,,0827.9,4.99,0.00,25.9,25.0,00.0,35.0,27.7,10.4,-002.9,0020.72,0005.51,0004.21
2021-10-22 13:42:00,,0827.9,5.00,0.00,25.9,25.0,00.0,35.0,27.7,10.3,-003.1,0019.87,0005.49,0004.24
2021-10-22 13:43:00,,0828.0,5.00,0.00,25.9,25.0,00.0,35.0,27.7,10.3,-003.0,0019.16,0005.45,0004.22
2021-10-22 13:44:00,,0828.0,4.99,0.00,25.9,25.0,00.0,35.0,27.7,10.1,-002.7,0018.45,0005.26,0004.14
2021-10-22 13:45:00,,0827.9,5.01,0.00,25.9,25.1,00.0,35.0,27.7,09.9,-002.6,0017.81,0005.12,0004.03
2021-10-22 13:46:00,,0828.0,5.00,0.00,25.9,25.1,00.0,35.0,27.7,09.8,-001.7,0016.25,0004.94,0003.89
2021-10-22 13:47:00,,0828.0,5.00,0.00,25.9,25.1,00.0,35.0,27.8,09.8,-001.5,0015.55,0004.78,0003.75
2021-10-22 13:48:00,,0827.9,5.01,0.00,25.9,25.2,00.0,35.0,27.8,09.9,-001.4,0014.84,0004.52,0003.59
2021-10-22 13:49:00,,0827.9,5.00,0.00,26.0,25.2,00.0,35.0,27.8,09.8,-001.2,0013.45,0004.33,0003.46
2021-10-22 13:50:00,,0827.9,5.01,0.00,26.0,25.2,00.0,35.0,27.8,09.7,-001.3,0012.27,0004.18,0003.34
2021-10-22 13:51:00,,0827.9,5.00,0.00,26.0,25.2,00.0,35.0,27.8,09.6,-001.7,0010.92,0003.90,0003.12
2021-10-22 13:52:00,,0827.9,4.99,0.00,26.0,25.2,00.0,35.0,27.8,09.6,0000.0,0008.80,0003.60,0002.71
2021-10-22 13:53:00,,0827.9,4.99,0.00,26.0,25.3,00.0,35.0,27.9,09.7,0000.0,0006.76,0003.39,0002.40
2021-10-22 13:54:00,,0827.9,5.01,0.00,26.0,25.3,00.0,35.0,27.9,09.8,0000.0,0006.24,0003.24,0002.23
2021-10-22 13:55:00,,0828.0,5.00,0.00,26.0,25.3,00.0,35.0,27.9,10.0,0000.0,0007.01,0003.25,0002.20
2021-10-22 13:56:00,,0828.0,5.00,0.00,26.1,25.3,00.0,35.0,27.9,09.9,0000.0,0007.84,0003.29,0002.25
2021-10-22 13:57:00,,0827.9,5.01,0.00,26.1,25.3,00.0,35.1,28.0,09.6,0000.0,0008.02,0003.30,0002.25
2021-10-22 13:58:00,,0827.9,5.00,0.00,26.1,25.3,00.0,35.1,27.9,09.7,0000.0,0008.01,0003.26,0002.25
2021-10-22 13:59:00,,0827.9,4.99,0.00,26.1,25.3,00.0,35.1,27.9,09.9,0000.0,0008.05,0003.29,0002.30
